[[{"header":{"parameterUnit":"m.s-1","parameterCategory":1,"la1":30.2991,"la2":30.254,"lo1":-89.0895,"lo2":-89.0444,"dy":0.0017,"dx":0.0017,"nx":28,"ny":28,"refTime":"2023-07-19T21:00:00:Z","depth":0,"parameterNumber":2,"parameterNumberName":"U-component_of_WINDS"},"data":[0,0,0,0,0,0,0,0,0,0,0,0,0,0,0,0,0,0,0,0,0,0,0,0,0,0,0,0,0,0,0,0,0,0,0,0,0,0,0,0,0,0,0,0,0,0,0,0,0,0,0,0,0,0,0,0,0,0,2.1551,2.1552,0,2.1643,2.1644,2.1645,2.1651,2.165,2.1649,2.1648,2.1749,2.1753,2.1757,0,0,0,0,0,0,0,0,0,0,0,0,0,2.1387,2.139,2.1551,2.1552,2.1554,2.1643,2.1644,2.1646,2.1651,2.165,2.1648,2.1647,2.1748,2.1753,2.1757,0,0,0,0,0,0,0,0,0,0,0,0,0,2.1467,2.1391,2.1551,2.1567,2.1569,2.1643,2.1644,2.1646,2.1651,2.165,2.1648,2.1647,2.1747,2.1752,2.1758,2.1824,0,0,2.1775,2.1777,0,0,0,0,0,0,0,0,2.1462,2.1473,2.1563,2.1566,2.1569,2.1634,2.1624,2.1706,2.1652,2.162,2.1648,2.1646,2.1713,2.1721,2.1742,2.1829,2.1833,2.1775,2.1779,2.1781,2.1782,0,0,0,0,0,0,0,2.1457,2.1469,2.1588,2.1565,2.1568,2.1572,2.1581,2.164,2.1675,2.1623,2.1623,2.1634,2.1714,2.1737,2.1744,2.1835,2.1775,2.178,2.1783,2.1786,2.1983,2.1985,0,0,0,0,0,0,2.1447,2.1464,2.1585,2.1591,2.151,2.1576,2.1587,2.1615,2.1674,2.1681,2.1635,2.1634,2.1728,2.1738,2.1748,2.1831,2.1781,2.1786,2.1789,2.1981,2.1983,2.1985,0,0,0,0,0,0,2.1444,2.1458,2.1581,2.1528,2.1544,2.158,2.1612,2.1617,2.164,2.1683,2.169,2.1651,2.1727,2.174,2.1805,2.1835,2.1789,2.1794,2.1979,2.1982,2.1984,2.1996,0,0,0,0,0,0,2.1439,2.1457,2.1481,2.1528,2.1546,2.1635,2.1614,2.162,2.1649,2.1648,2.17,2.1708,2.1727,2.1797,2.1811,2.1841,2.1798,2.1976,2.198,2.1983,2.1994,2.1999,2.2004,0,0,0,0,0,2.1433,2.1482,2.1482,2.1496,2.1577,2.1636,2.1647,2.1666,2.1651,2.1677,2.1704,2.1706,2.1829,2.1803,2.1819,2.1852,2.1974,2.1979,2.1983,2.1991,2.1998,2.2004,0,0,0,0,0,0,2.1439,2.1488,2.1489,2.1554,2.159,2.1637,2.167,2.1673,2.1716,2.1714,2.1738,2.175,2.1814,2.1839,2.181,2.192,2.19,2.1908,2.1901,2.1908,2.1913,2.1907,2.1803,0,0,0,0,0,2.1448,2.149,2.1531,2.1585,2.1603,2.1633,2.166,2.1671,2.1711,2.1727,2.176,2.18,2.1848,2.188,2.1926,2.1997,2.201,2.2027,2.2033,2.2037,2.2044,2.2085,2.2094,2.1999,2.1999,2.1999,0,0,2.1467,2.1499,2.1524,2.1587,2.1616,2.1662,2.1646,2.1694,2.1729,2.1735,2.1798,2.1823,2.1871,2.1939,2.1971,2.1962,2.2072,2.2042,2.2045,2.205,2.209,2.2099,2.2107,2.2002,2.2002,2.2001,0,0,2.1525,2.1552,2.16,2.1629,2.1674,2.1693,2.1705,2.1751,2.1767,2.183,2.1836,2.1878,2.196,2.1993,2.2021,2.2091,2.2095,2.2106,2.2135,2.2174,2.2182,2.2188,2.2215,2.2224,2.2112,2.2112,2.2113,0,2.1543,2.1609,2.1625,2.1673,2.1701,2.1706,2.1756,2.1785,2.1843,2.1864,2.1853,2.1955,2.1987,2.2064,2.2081,2.2103,2.2119,2.2101,2.2179,2.2186,2.2192,2.2218,2.2228,2.2114,2.2113,2.2113,2.2113,0,2.163,2.1676,2.171,2.1763,2.1795,2.1844,2.187,2.1901,2.1909,2.1931,2.1996,2.2034,2.2089,2.2108,2.2117,2.2186,2.218,2.2173,2.2154,2.2202,2.2227,2.2236,2.2115,2.2115,2.2114,2.2114,0,0,2.1696,2.1756,2.1769,2.1794,2.1843,2.188,2.193,2.198,2.2007,2.2047,2.2091,2.216,2.2154,2.2185,2.2199,2.2233,2.2288,2.2223,2.2225,2.2235,2.2369,2.2374,2.2385,2.229,2.2292,2.2294,2.2365,0,2.176,2.1846,2.1862,2.1938,2.1982,2.1987,2.2031,2.2067,2.2089,2.2131,2.2156,2.2204,2.2192,2.2211,2.2245,2.2274,2.2316,2.2269,2.2334,2.2336,2.2323,2.2397,2.2403,2.2469,2.2375,2.2376,2.2377,0,2.1846,2.1886,2.1966,2.201,2.2029,2.2067,2.2116,2.2155,2.2197,2.221,2.2245,2.2254,2.2309,2.2285,2.2362,2.233,2.2358,2.2376,2.2379,2.2387,2.236,2.2409,2.249,2.25,2.2392,2.2391,2.239,0,2.1888,2.1961,2.2019,2.204,2.2092,2.2119,2.2142,2.2182,2.2212,2.2255,2.2275,2.2325,2.2352,2.2392,2.2415,2.2396,2.2491,2.2469,2.2505,2.2505,2.2526,2.2525,2.2614,2.2542,2.2541,2.2541,2.2541,0,2.1958,2.2008,2.2038,2.2074,2.2129,2.2148,2.2204,2.2227,2.2262,2.2304,2.2313,2.2353,2.238,2.2425,2.2444,2.2505,2.2517,2.2531,2.2536,2.2531,2.253,2.2551,2.2548,2.2544,2.2543,2.2543,2.2542,0,2.2015,2.2037,2.21,2.2143,2.2155,2.2195,2.2233,2.2269,2.229,2.2343,2.2357,2.2391,2.2444,2.247,2.2536,2.2549,2.2619,2.262,2.2604,2.2606,2.2641,2.2638,2.2749,2.2765,2.268,2.2681,2.2681,0,2.2059,2.2096,2.2143,2.2171,2.2194,2.2238,2.2268,2.2288,2.232,2.237,2.2401,2.2453,2.2496,2.258,2.2612,2.2663,2.2667,2.2702,2.2675,2.2669,2.2669,2.2667,2.2672,2.2708,2.2708,2.2709,2.271,0,2.2136,2.2145,2.2186,2.2232,2.2266,2.2304,2.2341,2.2364,2.239,2.2425,2.2477,2.2511,2.2577,2.263,2.2683,2.271,2.2715,2.2717,2.2729,2.2725,2.2715,2.2722,2.2619,2.2715,2.2715,2.2714,2.2714,2.2714,2.2189,2.2222,2.226,2.2307,2.2336,2.237,2.2406,2.2431,2.2474,2.2528,2.2538,2.2594,2.2636,2.2708,2.2736,2.2782,2.2775,2.2791,2.2795,2.2799,2.2802,2.2706,2.2792,2.2792,2.2792,2.2791,2.2791,0,2.2267,2.2291,2.2333,2.2384,2.2421,2.2419,2.246,2.2492,2.254,2.2578,2.2619,2.268,2.2731,2.2767,2.2819,2.2849,2.2853,2.2863,2.2862,2.2868,2.2804,2.279,2.2859,2.2859,2.2859,2.2859,2.2859,2.2859,2.2312,2.237,2.2383,2.2456,2.2481,2.2534,2.2558,2.259,2.262,2.2687,2.2728,2.275,2.2788,2.2843,2.289,2.29,2.2919,2.2929,2.2939,2.2879,2.2872,2.2866,2.2852,2.2933,2.2933,2.2999,2.2999,2.3]},{"header":{"parameterUnit":"m.s-1","parameterCategory":1,"la1":30.2991,"la2":30.254,"lo1":-89.0895,"lo2":-89.0444,"dy":0.0017,"dx":0.0017,"nx":28,"ny":28,"refTime":"2023-07-19T21:00:00:Z","depth":0,"parameterNumber":3,"parameterNumberName":"V-component_of_WINDS"},"data":[0,0,0,0,0,0,0,0,0,0,0,0,0,0,0,0,0,0,0,0,0,0,0,0,0,0,0,0,0,0,0,0,0,0,0,0,0,0,0,0,0,0,0,0,0,0,0,0,0,0,0,0,0,0,0,0,0,0,2.9496,2.9496,0,2.9501,2.9501,2.9501,2.9506,2.9506,2.9506,2.9506,2.9508,2.9508,2.9508,0,0,0,0,0,0,0,0,0,0,0,0,0,2.9486,2.9486,2.9496,2.9496,2.9496,2.9501,2.9501,2.9501,2.9505,2.9506,2.9506,2.9506,2.9508,2.9508,2.9508,0,0,0,0,0,0,0,0,0,0,0,0,0,2.949,2.9486,2.9496,2.9499,2.9499,2.9501,2.9501,2.9501,2.9505,2.9506,2.9506,2.9506,2.9508,2.9508,2.9508,2.9506,0,0,2.9508,2.9508,0,0,0,0,0,0,0,0,2.949,2.9491,2.9498,2.9499,2.9499,2.9503,2.9498,2.9503,2.9505,2.9503,2.9506,2.9506,2.9506,2.9506,2.9507,2.9506,2.9507,2.9508,2.9508,2.9508,2.9508,0,0,0,0,0,0,0,2.949,2.949,2.9498,2.9498,2.9499,2.9498,2.9499,2.9499,2.9504,2.9503,2.9504,2.9504,2.9506,2.9507,2.9507,2.9507,2.9508,2.9508,2.9508,2.9508,2.9502,2.9502,0,0,0,0,0,0,2.9489,2.949,2.9498,2.9498,2.9495,2.9499,2.9499,2.9501,2.9504,2.9504,2.9504,2.9504,2.9507,2.9507,2.9507,2.9504,2.9508,2.9508,2.9508,2.9502,2.9502,2.9502,0,0,0,0,0,0,2.9489,2.949,2.9497,2.9494,2.9495,2.9499,2.9501,2.9501,2.9502,2.9505,2.9505,2.9504,2.9507,2.9507,2.9506,2.9504,2.9508,2.9508,2.9502,2.9502,2.9502,2.9497,0,0,0,0,0,0,2.9489,2.949,2.949,2.9494,2.9495,2.9498,2.9501,2.9501,2.9502,2.9503,2.9505,2.9505,2.9507,2.9506,2.9506,2.9504,2.9508,2.9503,2.9502,2.9502,2.9498,2.9497,2.9496,0,0,0,0,0,2.9488,2.9489,2.949,2.9491,2.9496,2.9498,2.9498,2.9501,2.9502,2.9502,2.9503,2.9505,2.9504,2.9506,2.9506,2.9504,2.9503,2.9502,2.9502,2.9498,2.9497,2.9496,0,0,0,0,0,0,2.9485,2.949,2.9491,2.9493,2.9495,2.9498,2.9498,2.95,2.9501,2.9501,2.9504,2.9504,2.9502,2.9503,2.9505,2.9501,2.9503,2.9503,2.95,2.95,2.9499,2.9499,2.9508,0,0,0,0,0,2.9484,2.9486,2.949,2.9491,2.9492,2.9495,2.9496,2.9497,2.9499,2.9499,2.9501,2.9501,2.95,2.95,2.95,2.9498,2.9497,2.9496,2.9495,2.9495,2.9494,2.9491,2.9489,2.95,2.95,2.9501,0,0,2.9483,2.9486,2.9487,2.949,2.9492,2.9492,2.9495,2.9496,2.9496,2.9499,2.9498,2.9499,2.9499,2.9497,2.9496,2.9498,2.9491,2.9494,2.9494,2.9493,2.949,2.9489,2.9488,2.95,2.95,2.95,0,0,2.9481,2.9484,2.9485,2.9486,2.9488,2.949,2.9489,2.9492,2.9493,2.9492,2.9494,2.9492,2.9492,2.9492,2.9491,2.9486,2.9487,2.9486,2.9482,2.9479,2.9478,2.9477,2.9474,2.9473,2.9486,2.9486,2.9486,0,2.9479,2.9481,2.9484,2.9485,2.9485,2.9488,2.9487,2.9488,2.949,2.9489,2.9491,2.9489,2.949,2.9486,2.9485,2.9485,2.9483,2.9486,2.9478,2.9477,2.9477,2.9473,2.9472,2.9485,2.9485,2.9485,2.9485,0,2.9477,2.9478,2.9478,2.948,2.948,2.948,2.9482,2.9481,2.9483,2.9483,2.9481,2.9481,2.948,2.948,2.9481,2.9476,2.9476,2.9478,2.9481,2.9475,2.9472,2.9471,2.9485,2.9485,2.9485,2.9485,0,0,2.9475,2.9477,2.9477,2.9476,2.9478,2.9478,2.9477,2.9476,2.9475,2.9475,2.9473,2.9471,2.9472,2.9472,2.9473,2.947,2.9463,2.9471,2.9471,2.9469,2.9455,2.9453,2.9451,2.9464,2.9464,2.9463,2.9454,0,2.9472,2.9471,2.9473,2.9471,2.9471,2.9472,2.9471,2.947,2.947,2.9469,2.9468,2.9467,2.9469,2.9468,2.9465,2.9465,2.946,2.9465,2.946,2.9459,2.9459,2.945,2.9448,2.944,2.9453,2.9453,2.9453,0,2.9469,2.9469,2.9468,2.9467,2.9467,2.9466,2.9464,2.9463,2.9462,2.9462,2.946,2.9461,2.9457,2.946,2.9454,2.9457,2.9455,2.9453,2.9453,2.9452,2.9455,2.9447,2.9437,2.9436,2.9451,2.9451,2.9451,0,2.9466,2.9465,2.9464,2.9463,2.9463,2.9462,2.9462,2.946,2.9459,2.9457,2.9456,2.9453,2.9451,2.9448,2.9447,2.945,2.944,2.9443,2.9438,2.9438,2.9436,2.9436,2.9424,2.9436,2.9436,2.9436,2.9436,0,2.9462,2.9461,2.9462,2.9461,2.9458,2.9459,2.9455,2.9455,2.9453,2.9451,2.9452,2.9449,2.9448,2.9444,2.9443,2.9437,2.9436,2.9435,2.9434,2.9434,2.9434,2.9432,2.9433,2.9436,2.9436,2.9436,2.9436,0,2.9458,2.9459,2.9457,2.9456,2.9456,2.9454,2.9452,2.945,2.945,2.9446,2.9445,2.9443,2.9439,2.9437,2.9432,2.9431,2.9423,2.9424,2.9424,2.9424,2.9418,2.9418,2.9404,2.9401,2.9416,2.9416,2.9415,0,2.9456,2.9455,2.9453,2.9452,2.9451,2.9449,2.9448,2.9448,2.9446,2.9442,2.944,2.9435,2.9432,2.9424,2.9421,2.9416,2.9416,2.9411,2.9415,2.9414,2.9414,2.9414,2.9412,2.941,2.941,2.941,2.941,0,2.9451,2.9451,2.9449,2.9447,2.9445,2.9443,2.9441,2.9439,2.9438,2.9436,2.9431,2.9428,2.9422,2.9416,2.9411,2.9408,2.9408,2.9409,2.9407,2.9406,2.9406,2.9404,2.9421,2.9409,2.9409,2.9409,2.9409,2.9409,2.9447,2.9445,2.9443,2.944,2.9439,2.9436,2.9434,2.9432,2.9429,2.9424,2.9424,2.9418,2.9414,2.9406,2.9403,2.9397,2.9399,2.9397,2.9396,2.9395,2.9394,2.9407,2.9396,2.9396,2.9396,2.9396,2.9397,0,2.9441,2.9439,2.9437,2.9434,2.9431,2.9432,2.9428,2.9426,2.9421,2.9417,2.9414,2.9407,2.9401,2.9397,2.939,2.9386,2.9386,2.9384,2.9384,2.9383,2.9394,2.9395,2.9385,2.9385,2.9385,2.9385,2.9385,2.9385,2.9438,2.9434,2.9433,2.9427,2.9425,2.942,2.9418,2.9415,2.9412,2.9404,2.9399,2.9397,2.9393,2.9385,2.9379,2.9378,2.9375,2.9373,2.9372,2.9382,2.9383,2.9384,2.9385,2.9373,2.9373,2.9361,2.9361,2.9361]}]]